Погода в Сарагте

Погода в Сарагте : погода сейчас, прогноз погоды и архив. Всё, что Вы хотите узнать о погоде в Сарагте!

Поиск расширенной информации на нашем сайте:

Полезная информация: Получить визу в великобританию. Можно ли узнать получил визу в великобританию или нет.

Другие новости

Новости СМИ2

Главная страница сайта

Новости сайта

03.07.2017

Напоминаем, что на нашем специализированном сайте Метеоцентр.Азия вы можете получить высокодетализированные автоматические прогнозы погоды по пунктам России, СНГ и мира в авиационном формате (включающие направление и скорость ветра, видимость, явления погоды, количество и форму облачности, нижнюю и верхнюю границу облачности).

Рекомендуем: Клееный брус строительство под ключ дома из клееного бруса под ключ.

Погода в Сарагте - сегодня

Время (UTC), дата Ветер
(°,м/с) 
Видим.   Явления Облачность Т
(°С)
Тd
(°С)
f(%) Тe
(°С)
Pmin
(гПа)
dP
(гПа)
Po
(мм)
O2
(г/м3)
Тmin Tmax R s Состояние
почвы
18 16.09.17 320 (СЗ) 20000 м    ясно 
+21.1 +3.6 32 +21  1016.6  1.6  739  276    +31.8       
21 16.09.17 320 (СЗ) 20000 м    ясно 
+19.6 +4.1 36 +21  1016.2  -0.4  738  277           
00 17.09.17 320 (СЗ) 20000 м    ясно 
+17.6 +4.6 42 +18  1016.5  738  279           
03 17.09.17 320 (СЗ) 20000 м    ясно 
+17.4 +0.4 32 +18  1017.7  739  280           
06 17.09.17 340 (С) 20000 м    ясно 
+26.2 +0.4 18 +26  1017.6  0.9  740  272  +17.3         
09 17.09.17 340 (С) 20000 м    ясно 
+29.6 +0.6 15 +30  1015.8  -1.5  739  268           
12 17.09.17 320 (СЗ) 20000 м    ясно 
+30.4 +0.9 15 +30  1014.4  -1.2  738  267           
15 17.09.17 340 (С) 20000 м    ясно 
+26.4 +2.1 21 +26  1015.4  0.6  738  271    +31.2       
18 17.09.17 320 (СЗ) 20000 м    ясно 
+21.5 +3 30 +22  1016.2  0.3  738  275    +31.2       
21 17.09.17 320 (СЗ) 20000 м    ясно 
+19.7 +3.8 35 +21  1017  0.6  739  277           
00 18.09.17 тихо ()   20000 м    ясно 
+17 +4.3 43 +17  1016.6  -0.7  731  276           
03 18.09.17 320 (СЗ) 20000 м    ясно 
+17.9 +1.7 34 +19  1017  0.4  739  279           
06 18.09.17 290 (З) 20000 м    ясно 
+26.2 +1.9 21 +26  1017.9  1.8  740  272  +16.9         
09 18.09.17 320 (СЗ) 20000 м    ясно 
+31.2 +4 18 +31  1015.4  -2  738  266           
12 18.09.17 320 (СЗ) 20000 м    ясно 
+30.8 +2.7 17 +31  1014.1  -1.2  737  267           
15 18.09.17 320 (СЗ) 20000 м    ясно 
+26.6 +4.1 24 +27  1015.2  0.7  738  270    +32.2       
18 18.09.17 340 (С) 20000 м    ясно 
+22.5 +4.1 30 +23  1015.8  0.1  738  274    +32.2       
21 18.09.17 320 (СЗ) 20000 м    ясно 
+20.3 +5.9 39 +20  1015.3  -0.7  738  276           
00 19.09.17 320 (СЗ) 20000 м    ясно 
+19 +5.8 42 +21  1015  -0.5  737  277           
03 19.09.17 340 (С) 20000 м    ясно 
+16.2 +2.1 39 +17  1016.2  0.9  738  280           
06 19.09.17 320 (СЗ) 20000 м    ясно 
+28 +4.3 22 +28  1016.1  1.1  739  269  +16.1         
09 19.09.17 320 (СЗ) 20000 м    ясно 
+31.6 +4.5 18 +32  1014.7  -0.9  738  266           
12 19.09.17 320 (СЗ) 20000 м    ясно 
+32.6 +4.8 17 +33  1013.3  -1.3  737  265           
15 19.09.17 320 (СЗ) 20000 м    ясно 
+28.6 +6.1 24 +29  1014.2  0.5  737  268    +33.4       
18 19.09.17 340 (С) 20000 м    ясно 
+21.6 +3.6 31 +22  1015.3  0.4  738  275    +33.4       
Время (UTC), дата Ветер
(°,м/с) 
Видим.   Явления Облачность Т
(°С)
Тd
(°С)
f(%) Тe
(°С)
Pmin
(гПа)
dP
(гПа)
Po
(мм)
O2
(г/м3)
Тmin Tmax R s Состояние
почвы

Для получения пояснительной информации подведите курсор к названию столбца.

ПОГОДА в Сарагте - архив

Всё, что Вы хотите узнать о погоде в Сарагте - удобно и подробно!

Выберите нужную дату (начиная с 1 января 2015* года) и нажмите кнопку "Найти".
Будут отображены архивные сводки погоды по пункту Сарагт, начиная с указанной даты.


Отображать данные в формате CSV (для использования в таблицах Excel)


Внимание! Наш архив погоды предназначен исключительно для личного некоммерческого использования в познавательных целях. Если Вам необходимы официальные справки о состоянии погоды (для производственных, юридических, коммерческих и т.п. целей), обращайтесь в органы Росгидромета.

*Примечание: данная дата относится к архиву по метеостанциям СССР (Россия, СНГ, Балтия).
Архив по метеостанциям Зарубежной Европы и Азии (кроме Китая) хранится 10 дней, по другим регионам земного шара (Китай, Африка, Америка, Австралия, Океания) - 1 день.

Сарагт - район местоположения метеостанции


Название, широта, долгота, высота метеостанции:
Сарагт 36.5°ш. 61.2°д. 275 м над ур. моря [Туркменистан]

Дополнительная информация

В oтличие oт бoльшинства пoгoдных сайтoв мы публикуем пoдрoбную метеoинфoрмацию в детальнoм прoфессиoнальнoм фoрмате.

Характеристики температуры и влажнoсти вoздуха измеряются на высoте 2 м в тени вдали oт зданий и деревьев.
Скoрoсть ветра измеряется на высoте 10 м (на урoвне рoста челoвека скoрoсть ветра ниже в 1.5-2 раза). Если метеoстанция нахoдится в гoрoде или в лесу, тo скoрoсть ветра занижена на 2-4 м/с пo сравнению с oткрытым местoм. Скoрoсть ветра над акватoриями крупных рек и oзёр, а также на вершинах хoлмoв на 2-5 м/с выше, чем в oбычных услoвиях.
Атмoсфернoе давление в разных тoчках местнoсти мoжет значительнo oтличаться oт давления на метеoстанции, в зависимoсти oт услoвий рельефа (при пoдъёме на 10 м давление пoнижается примернo на 1 мм рт.ст.).